Weather History for KVYS - October, 2010

Change the Weather History Date:

Thursday, October 7, 2010

  Actual Average Record
Temperature  
Mean Temperature 61 °F -  
Max Temperature 77 °F 67 °F 89 °F (2007)
Min Temperature 45 °F 41 °F 29 °F (1974)
Degree Days  
Heating Degree Days 4    
Growing Degree Days 11 (Base 50)    
Moisture  
Dew Point 39 °F    
Average Humidity 52    
Maximum Humidity 86    
Minimum Humidity 16    
Precipitation  
Precipitation 0.00 in - - ()
Sea Level Pressure  
Sea Level Pressure 30.10 in    
Wind  
Wind Speed 8 mph (NW)    
Max Wind Speed 13 mph    
Max Gust Speed 17 mph    
Visibility 10 miles    
Events      
Averages and records for this station are not official NWS values.
T = Trace of Precipitation, MM = Missing Value Source: NWS Daily Summary

Daily Weather History Graph

Daily Weather History Graph

Search for Another Location

Airport or City:

Trip Planner

Search our weather history database for the weather conditions in past years. The results will help you decide how hot, cold, wet, or windy it might be!

Date:

Astronomy

Oct. 07, 2010 Rise Set
Actual Time 6:59 AM CDT 6:28 PM CDT
Civil Twilight 6:32 AM CDT 6:56 PM CDT
Nautical Twilight 6:00 AM CDT 7:28 PM CDT
Astronomical Twilight 5:27 AM CDT 8:00 PM CDT
Moon 6:51 AM CDT (10/7) 6:04 PM CDT (10/7)
Length of Visible Light 12h 24m
Length of Day
11h 28m
Waning Crescent, 0% of the Moon is Illuminated
Oct 7
Waning Crescent
Oct 7
New
Oct 14
First Quarter
Oct 22
Full
Oct 30
Last Quarter

Hourly Weather History & Observations

Time (CDT) Temp. Windchill Dew Point Humidity Pressure Visibility Wind Dir Wind Speed Gust Speed Precip Events Conditions
12:03 AM 56.5 °F - 49.1 °F 76% 30.03 in 10.0 mi NW 8.1 mph - N/A   Clear
12:23 AM 55.6 °F - 48.6 °F 77% 30.03 in 10.0 mi NW 9.2 mph - N/A   Clear
12:43 AM 55.6 °F - 48.6 °F 77% 30.03 in 10.0 mi NW 8.1 mph - N/A   Clear
1:03 AM 55.4 °F - 48.2 °F 77% 30.04 in 10.0 mi NW 9.2 mph - N/A   Clear
1:23 AM 55.4 °F - 48.2 °F 77% 30.04 in 10.0 mi NNW 8.1 mph - N/A   Clear
1:43 AM 55.4 °F - 47.8 °F 76% 30.05 in 10.0 mi NNW 8.1 mph - N/A   Clear
2:03 AM 55.4 °F - 47.5 °F 75% 30.06 in 10.0 mi NNW 9.2 mph - N/A   Clear
2:23 AM 55.4 °F - 47.5 °F 75% 30.06 in 10.0 mi NNW 8.1 mph - N/A   Clear
2:43 AM 53.6 °F - 46.6 °F 77% 30.06 in 10.0 mi NNW 6.9 mph - N/A   Clear
3:03 AM 50.5 °F - 44.6 °F 80% 30.06 in 10.0 mi NNW 8.1 mph - N/A   Clear
3:23 AM 50.0 °F - 44.8 °F 82% 30.06 in 10.0 mi NNW 6.9 mph - N/A   Clear
3:43 AM 50.0 °F - 44.8 °F 82% 30.07 in 10.0 mi NNW 6.9 mph - N/A   Clear
4:03 AM 47.8 °F - 42.6 °F 82% 30.07 in 10.0 mi NNW 6.9 mph - N/A   Clear
4:23 AM 47.8 °F - 43.2 °F 84% 30.08 in 10.0 mi NW 6.9 mph - N/A   Clear
4:43 AM 47.7 °F - 43.0 °F 84% 30.09 in 10.0 mi NNW 6.9 mph - N/A   Clear
5:03 AM 47.3 °F - 42.8 °F 84% 30.09 in 10.0 mi NW 6.9 mph - N/A   Clear
5:23 AM 46.8 °F - 42.4 °F 85% 30.10 in 10.0 mi NW 6.9 mph - N/A   Clear
5:43 AM 46.6 °F - 42.1 °F 84% 30.10 in 10.0 mi NW 6.9 mph - N/A   Clear
6:03 AM 46.4 °F 42.4 °F 41.5 °F 83% 30.11 in 10.0 mi NW 8.1 mph - N/A   Clear
6:23 AM 46.2 °F 41.7 °F 41.9 °F 85% 30.12 in 10.0 mi NW 9.2 mph - N/A   Clear
6:43 AM 45.7 °F 41.0 °F 41.2 °F 84% 30.12 in 10.0 mi WNW 9.2 mph - N/A   Clear
7:03 AM 46.9 °F - 42.8 °F 86% 30.12 in 10.0 mi WNW 9.2 mph - N/A   Clear
7:23 AM 47.3 °F - 43.2 °F 86% 30.13 in 10.0 mi WNW 9.2 mph - N/A   Clear
7:43 AM 48.7 °F - 43.9 °F 83% 30.13 in 10.0 mi NW 9.2 mph - N/A   Clear
8:03 AM 51.3 °F - 45.1 °F 80% 30.13 in 10.0 mi NW 8.1 mph - N/A   Clear
8:23 AM 54.0 °F - 45.9 °F 74% 30.14 in 10.0 mi NW 9.2 mph - N/A   Clear
8:43 AM 55.9 °F - 46.0 °F 69% 30.14 in 10.0 mi NW 9.2 mph - N/A   Clear
9:03 AM 57.7 °F - 45.5 °F 64% 30.15 in 10.0 mi NW 10.4 mph - N/A   Clear
9:23 AM 59.0 °F - 45.3 °F 60% 30.15 in 10.0 mi NW 9.2 mph - N/A   Clear
9:43 AM 61.0 °F - 45.0 °F 56% 30.14 in 10.0 mi NW 8.1 mph - N/A   Clear
10:03 AM 62.6 °F - 44.4 °F 51% 30.14 in 10.0 mi NNW 6.9 mph - N/A   Clear
10:23 AM 64.4 °F - 42.6 °F 45% 30.15 in 10.0 mi NW 8.1 mph - N/A   Clear
10:43 AM 66.2 °F - 43.0 °F 43% 30.16 in 10.0 mi NW 8.1 mph - N/A   Clear
11:03 AM 67.3 °F - 40.5 °F 38% 30.16 in 10.0 mi NNW 6.9 mph - N/A   Clear
11:23 AM 68.5 °F - 40.1 °F 35% 30.16 in 10.0 mi NW 6.9 mph - N/A   Clear
11:43 AM 69.4 °F - 37.9 °F 32% 30.16 in 10.0 mi NW 5.8 mph - N/A   Clear
12:03 PM 70.7 °F - 37.9 °F 30% 30.16 in 10.0 mi West 4.6 mph - N/A   Clear
12:23 PM 71.8 °F - 36.5 °F 28% 30.15 in 10.0 mi NNW 5.8 mph - N/A   Clear
12:43 PM 72.1 °F - 33.3 °F 24% 30.14 in 10.0 mi NW 3.5 mph - N/A   Clear
1:03 PM 73.4 °F - 32.7 °F 22% 30.14 in 10.0 mi NNW 8.1 mph - N/A   Clear
1:23 PM 73.9 °F - 32.4 °F 22% 30.13 in 10.0 mi WNW 8.1 mph - N/A   Clear
1:43 PM 75.0 °F - 32.2 °F 21% 30.12 in 10.0 mi WNW 9.2 mph - N/A   Clear
2:03 PM 75.6 °F - 31.6 °F 20% 30.11 in 10.0 mi West 8.1 mph - N/A   Clear
2:23 PM 76.1 °F - 31.5 °F 20% 30.11 in 10.0 mi WNW 10.4 mph 17.3 mph N/A   Clear
2:43 PM 76.3 °F - 30.6 °F 19% 30.10 in 10.0 mi WNW 5.8 mph - N/A   Clear
3:03 PM 77.0 °F - 30.4 °F 18% 30.10 in 10.0 mi WNW 10.4 mph 16.1 mph N/A   Clear
3:23 PM 77.4 °F - 30.2 °F 18% 30.10 in 10.0 mi WNW 10.4 mph - N/A   Clear
3:43 PM 77.4 °F - 28.9 °F 17% 30.09 in 10.0 mi WNW 12.7 mph 16.1 mph N/A   Clear
4:03 PM 77.5 °F - 29.7 °F 17% 30.09 in 10.0 mi WNW 10.4 mph - N/A   Clear
4:23 PM 77.2 °F - 30.0 °F 18% 30.09 in 10.0 mi WNW 9.2 mph - N/A   Clear
4:43 PM 77.2 °F - 29.5 °F 17% 30.09 in 10.0 mi WNW 9.2 mph - N/A   Clear
5:03 PM 76.3 °F - 27.3 °F 16% 30.09 in 10.0 mi WNW 8.1 mph - N/A   Clear
5:23 PM 75.6 °F - 26.4 °F 16% 30.09 in 10.0 mi WNW 9.2 mph - N/A   Clear
5:43 PM 73.6 °F - 30.2 °F 20% 30.09 in 10.0 mi WNW 8.1 mph - N/A   Clear
6:03 PM 71.2 °F - 32.2 °F 24% 30.09 in 10.0 mi West 6.9 mph - N/A   Clear
6:23 PM 70.2 °F - 33.1 °F 25% 30.09 in 10.0 mi WNW 8.1 mph - N/A   Clear
6:43 PM 66.7 °F - 33.8 °F 29% 30.10 in 10.0 mi West 6.9 mph - N/A   Clear
7:03 PM 64.8 °F - 33.8 °F 32% 30.10 in 10.0 mi WNW 8.1 mph - N/A   Clear
7:23 PM 61.9 °F - 34.0 °F 35% 30.11 in 10.0 mi West 6.9 mph - N/A   Clear
7:43 PM 61.5 °F - 33.6 °F 35% 30.11 in 10.0 mi West 6.9 mph - N/A   Clear
8:03 PM 60.8 °F - 33.4 °F 36% 30.11 in 10.0 mi West 6.9 mph - N/A   Clear
8:23 PM 60.4 °F - 35.2 °F 39% 30.11 in 10.0 mi West 8.1 mph - N/A   Clear
8:43 PM 59.4 °F - 36.5 °F 43% 30.11 in 10.0 mi WNW 6.9 mph - N/A   Clear
9:03 PM 58.3 °F - 37.2 °F 45% 30.11 in 10.0 mi West 4.6 mph - N/A   Clear
9:23 PM 58.1 °F - 37.4 °F 46% 30.11 in 10.0 mi West 5.8 mph - N/A   Clear
9:43 PM 55.6 °F - 37.8 °F 51% 30.11 in 10.0 mi West 5.8 mph - N/A   Clear
10:03 PM 56.3 °F - 38.3 °F 51% 30.11 in 10.0 mi WNW 5.8 mph - N/A   Clear
10:23 PM 55.4 °F - 39.0 °F 54% 30.11 in 10.0 mi West 5.8 mph - N/A   Clear
10:43 PM 55.4 °F - 39.2 °F 54% 30.11 in 10.0 mi West 5.8 mph - N/A   Clear
11:03 PM 55.4 °F - 39.6 °F 55% 30.11 in 10.0 mi West 5.8 mph - N/A   Clear
11:23 PM 55.2 °F - 39.7 °F 56% 30.11 in 10.0 mi West 5.8 mph - N/A   Clear
11:43 PM 54.5 °F - 39.9 °F 58% 30.11 in 10.0 mi West 5.8 mph - N/A   Clear